TimeEST,TemperatureF,Dew PointF,Humidity,Sea Level PressureIn,VisibilityMPH,Wind Direction,Wind SpeedMPH,Gust SpeedMPH,PrecipitationIn,Events,Conditions,WindDirDegrees,DateUTC
12:53 AM,46.0,36.0,68,30.40,10.0,North,11.5,-,N/A,,Clear,360,2013-01-19 05:53:00
1:53 AM,45.0,35.1,68,30.39,10.0,North,9.2,-,N/A,,Clear,360,2013-01-19 06:53:00
2:53 AM,46.0,36.0,68,30.38,10.0,North,8.1,-,N/A,,Clear,360,2013-01-19 07:53:00
3:53 AM,46.9,35.1,63,30.37,10.0,North,10.4,-,N/A,,Clear,10,2013-01-19 08:53:00
4:53 AM,48.0,36.0,63,30.37,10.0,North,9.2,-,N/A,,Mostly Cloudy,10,2013-01-19 09:53:00
5:53 AM,48.9,37.0,64,30.38,10.0,North,15.0,-,N/A,,Overcast,10,2013-01-19 10:53:00
6:53 AM,48.0,37.9,68,30.38,10.0,NNE,11.5,-,N/A,,Mostly Cloudy,20,2013-01-19 11:53:00
7:53 AM,48.9,39.9,71,30.38,10.0,NNE,10.4,-,N/A,,Clear,20,2013-01-19 12:53:00
8:53 AM,52.0,43.0,71,30.39,10.0,NE,12.7,-,N/A,,Clear,40,2013-01-19 13:53:00
9:53 AM,55.9,46.0,69,30.41,10.0,NNE,13.8,21.9,N/A,,Clear,30,2013-01-19 14:53:00
10:53 AM,57.0,46.9,69,30.40,10.0,NNE,16.1,25.3,N/A,,Clear,30,2013-01-19 15:53:00
11:53 AM,55.9,46.9,72,30.38,10.0,NNE,15.0,26.5,N/A,,Mostly Cloudy,30,2013-01-19 16:53:00
12:09 PM,57.2,46.4,67,30.37,10.0,NNE,19.6,24.2,N/A,,Overcast,30,2013-01-19 17:09:00
12:53 PM,57.9,46.9,67,30.34,10.0,NNE,17.3,25.3,N/A,,Overcast,30,2013-01-19 17:53:00
1:33 PM,59.0,46.4,63,30.32,10.0,NE,15.0,-,N/A,,Mostly Cloudy,40,2013-01-19 18:33:00
1:53 PM,57.9,46.9,67,30.30,10.0,NE,15.0,21.9,N/A,,Mostly Cloudy,40,2013-01-19 18:53:00
2:53 PM,57.0,48.0,72,30.28,10.0,NNE,13.8,-,N/A,,Partly Cloudy,30,2013-01-19 19:53:00
3:53 PM,57.9,48.9,72,30.27,10.0,NE,11.5,20.7,N/A,,Scattered Clouds,40,2013-01-19 20:53:00
4:00 PM,57.2,50.0,77,30.27,10.0,NE,11.5,-,N/A,,Mostly Cloudy,40,2013-01-19 21:00:00
4:53 PM,57.0,50.0,77,30.27,10.0,NNE,11.5,-,N/A,,Overcast,30,2013-01-19 21:53:00
5:53 PM,57.0,51.1,81,30.27,10.0,North,9.2,-,N/A,,Overcast,10,2013-01-19 22:53:00
6:53 PM,57.0,52.0,83,30.27,10.0,NNE,8.1,-,N/A,,Overcast,20,2013-01-19 23:53:00
7:53 PM,57.0,52.0,83,30.27,10.0,North,6.9,-,N/A,,Overcast,10,2013-01-20 00:53:00
8:53 PM,55.9,51.1,84,30.27,10.0,North,6.9,-,N/A,,Overcast,350,2013-01-20 01:53:00
9:53 PM,54.0,50.0,86,30.25,10.0,North,4.6,-,N/A,,Overcast,350,2013-01-20 02:53:00
10:53 PM,53.1,50.0,89,30.25,10.0,NNW,5.8,-,N/A,,Mostly Cloudy,340,2013-01-20 03:53:00
11:53 PM,53.6,50.0,88,30.23,10.0,NNW,4.6,-,N/A,,Mostly Cloudy,340,2013-01-20 04:53:00